{"data":{"norad_id":63236,"epoch":"2026-09-22T15:19:17.927616Z","epoch_age_seconds":124017,"freshness":"FRESH","line1":"1 63236U 25052AC  26265.63840194  .00003024  00000+0  13244-3 0  9995","line2":"2 63236  97.3687 155.5036 0004362 148.6020 211.5478 15.22768191 84645","mean_motion":15.22768191,"eccentricity":0.0004362,"inclination_deg":97.3687,"raan_deg":155.5036,"arg_perigee_deg":148.602,"mean_anomaly_deg":211.5478,"bstar":0.00013244,"rev_number":8464,"period_min":94.564623066782,"perigee_km":494.49615983494,"apogee_km":500.49446146275,"semimajor_km":6875.6323106488,"source":"CELESTRAK","updated_at":"2026-09-23T09:00:21.905105Z"}}